User: anonymous   Login
Location: Stamford Observatory
(41.1241°N, 73.5498°W)
Time: 18:23:43
(UTC-04:00)
Language:

IRS-P3 - Orbit

View from above orbital plane
View from above orbital plane
View from above satellite
View from above satellite

Ground track
Ground track

The orbit data is extracted from the following two-line orbital elements,

1 23827U 96017A   17290.89639129 +.00000026 +00000-0 +31270-4 0  9996
2 23827 098.7335 227.4871 0004300 052.0310 308.1256 14.22523777119879
Epoch (UTC): 17 October 2017 21:30:48
Eccentricity: 0.0004300
inclination: 98.7335°
perigee height: 814 km
apogee height: 820 km
right ascension of ascending node: 227.4871°
argument of perigee: 52.0310°
revolutions per day: 14.22523777
mean anomaly at epoch: 308.1256°
orbit number at epoch: 11987

The dashed part of the orbit path shows where the satellite is in the earth's shadow,  

DLR